Vertical_Velocity
-0 -0 -1 -1 -0 -0 -0 -1 -1 -1 -1 -0 -0 -0 -0 -1 -1 -1 -0 -0 -0 -1 -1 -1 -1 -1 -1 -1 -1 -1 -0 -0 -0 -0 0 0 0 0 0 0 0 0 0 0 1 1 0 0 1 2 1 3 4 3 -0 1 0 -1 -1 -1 -1 -0 -0 -0 0 0 0 -0 -1 -2 -2 -3 -3 -2 -1 -1 -1 -2 -2 -1 -1 -1 -1 -0 -0 0 0 0 0 -0 -1 -2 -2 -1 -1 -2 -1 -0 -1 -2 -3 -2 0
-0 -0 -0 -0 -0 -0 -0 -1 -1 -1 -1 -1 -1 -0 -0 -1 -0 -0 -0 -0 -0 -0 -0 -1 -1 -1 -2 -1 -2 -2 -1 -1 -1 -0 -0 -0 0 0 0 -0 -0 -0 -0 -0 0 0 -0 0 1 2 0 3 2 1 0 1 -0 -1 -2 -2 -2 -1 -0 -0 0 0 0 -0 -1 -1 -2 -1 -1 -1 1 2 0 -2 -1 -2 -2 -2 -2 -2 -1 -1 -0 -0 -0 -0 -0 -1 -1 -2 -2 -2 -2 -2 -1 8 7 2 -1
-0 -0 -0 -0 -0 -0 -0 -1 -1 -1 -1 -1 -1 -0 -1 -0 -1 -1 -0 -1 -0 -0 -0 -0 -1 -1 -1 -1 -1 -2 -1 -1 -1 -1 -1 -1 -0 -0 -0 -0 -0 -0 -0 -0 -0 -0 -0 1 2 2 -1 1 2 3 3 1 0 -0 -0 -1 -2 -1 -0 -0 -0 -0 -0 -0 -1 -1 -2 0 -0 -1 1 4 1 -3 -2 -2 -1 -0 -1 -1 -2 -2 -2 -2 -1 -1 -1 -1 -1 -1 -2 -2 -2 -1 -1 5 7 6 3
-0 -0 -0 -0 -0 -0 -0 -0 -1 -1 -1 -1 -1 -1 -1 -1 -1 -1 -1 -1 -1 -1 -0 -1 -1 -1 -1 -1 -1 -1 -1 -1 -1 -1 -1 -1 -0 -0 -0 -0 -0 -0 0 0 0 0 -0 1 2 2 -2 1 3 4 3 2 1 0 0 -1 -1 -1 -0 -0 -1 -1 -1 -1 -1 -1 -1 0 0 -0 0 4 1 -2 -2 -1 1 3 5 2 2 2 1 1 -0 -2 -2 -2 -1 -1 -1 -1 -1 -0 -0 -0 -1 -0 2
-0 -0 -0 -0 -0 -0 -0 -0 -1 -1 -1 -1 -1 -1 -1 -1 -1 -1 -1 -1 -1 -1 -1 -1 -1 -1 -1 -1 -1 -1 -1 -1 -1 -1 -1 -1 -1 -0 -0 -0 -0 0 0 1 1 1 -0 0 1 2 -1 -2 -0 2 2 2 1 0 0 -0 -1 -1 -0 -0 -0 -0 -0 -0 -1 -1 -1 -1 -0 -0 -0 0 -1 -1 -1 0 2 3 4 -1 -2 -2 0 2 2 1 -2 -1 -1 -2 -2 -1 -1 -0 -1 -1 -1 -1 -0
-0 -0 -0 -0 -0 -0 -0 -1 -1 -0 -0 -0 -0 -1 -1 -1 -1 -1 -1 -1 -1 -1 -1 -1 -1 -0 -0 -0 -1 -1 -1 -1 -1 -1 -1 -1 -1 -0 -0 0 0 0 0 1 1 1 0 -0 1 1 1 -1 -2 -1 0 1 0 -0 -0 -0 -0 -0 -0 0 0 -0 0 -0 -0 -1 -2 -1 -1 -2 -2 -2 -2 -1 2 -0 3 5 3 -2 -2 0 4 1 0 0 -0 0 -0 -1 -2 -1 -1 -1 -1 -1 -1 -1 -1
-0 -0 -0 -0 0 -0 -0 -0 -0 -1 -0 -0 -1 -1 -1 -1 -1 -1 -1 -1 -1 -1 -1 -1 -1 -0 -0 -0 -0 -0 -0 -1 -1 -1 -1 -1 -1 -0 -0 0 0 0 1 1 1 1 0 0 0 0 1 1 1 0 -0 0 -0 -0 -0 -0 0 0 1 1 0 0 0 0 -0 -1 -2 -1 -1 -1 -1 -1 1 2 2 -3 3 9 0 -1 11 24 25 7 0 -1 -1 1 2 1 -1 0 -0 -1 -1 -2 -2 -2 -2
-0 -0 0 0 0 0 0 0 0 -0 -1 -1 -1 -0 0 -0 -0 -1 -1 -1 -1 -1 -1 -1 -1 -1 -0 -0 -0 -0 -0 -0 -0 -1 -1 -1 -0 -0 -0 -0 0 1 1 1 1 1 1 0 0 -0 -1 0 1 1 -0 -0 -0 0 1 1 1 1 1 1 0 0 -0 -0 -0 -1 -1 -1 -1 -1 -0 -1 -1 -0 2 -3 -3 -2 -4 -2 0 4 8 2 1 1 0 1 2 2 -0 0 -0 -0 -1 -1 -2 -3 -4
-1 -0 0 0 0 0 0 -0 -0 -0 -0 -1 -0 0 -0 -0 -0 -1 -1 -1 -1 -1 -1 -1 -1 -1 -0 -0 -0 -0 -0 -0 -0 -0 -0 -0 -0 -0 -0 -0 0 1 1 1 1 1 1 1 -0 -1 -1 -1 -0 -0 -0 0 1 1 1 1 1 1 1 1 0 -0 -0 -1 -1 -1 -0 -1 -1 -1 -0 -1 -1 -1 -1 -2 -2 -2 -1 -1 -2 -3 -2 -1 -0 0 -0 1 1 -0 -1 -1 -1 -1 -1 -1 -0 2 8
-1 -0 -0 -0 -0 -0 0 -0 -0 -1 -0 -0 -0 -0 -0 -0 -0 -0 -1 -1 -1 -1 -1 -1 -1 -1 -1 -0 -0 -0 -0 -1 -1 -1 -1 -0 -0 -0 -0 0 0 1 1 1 1 1 1 0 -1 -1 -1 -1 -0 0 0 1 1 1 1 1 1 1 1 0 -0 -0 -1 -1 -2 -2 -0 -1 -1 -0 -0 -1 -1 -2 -2 -1 -1 -1 -1 -2 -2 -1 -1 -0 -1 -0 -0 0 1 1 0 -0 -0 -0 -1 -1 1 8 18
-1 -1 -1 -1 -0 -0 0 -0 -0 -1 -1 -1 -1 -1 -1 -1 -1 -0 -0 -1 -1 -1 -1 -1 -1 -1 -1 -1 -0 -0 -1 -1 -1 -1 -1 -1 -1 -0 -0 0 0 1 1 0 -0 -0 0 -1 -2 -2 -2 -1 -0 0 1 1 1 1 1 0 0 0 1 0 -0 -1 -1 -1 -2 -2 -1 -1 -1 -0 0 -1 -1 -1 -0 -0 -0 -1 -2 -1 -1 -0 -0 -1 -0 -0 -0 0 0 0 0 0 1 1 -0 -1 1 5 6
-1 -1 -1 -1 -0 -0 0 -0 -1 -1 -1 -1 -1 -1 -1 -1 -1 -1 -1 -1 -1 -1 -1 -1 -1 -1 -1 -1 -1 -1 -1 -1 -1 -1 -1 -1 -1 -0 -0 0 0 -0 -0 -1 -1 -1 -1 -2 -3 -3 -2 -2 -1 -0 1 1 0 0 0 0 0 0 0 0 0 -0 -0 -0 -0 -1 -2 -1 -1 -0 -0 -0 -0 -0 0 -0 -0 -1 -2 -0 0 0 -0 -0 -0 0 -0 -0 -0 0 1 1 1 0 -0 -1 -1 -1 -2
-1 -1 -1 -0 -0 0 -0 -0 -1 -1 -1 -1 -1 -1 -1 -1 -1 -1 -1 -1 -1 -1 -1 -1 -1 -1 -1 -1 -1 -1 -1 -1 -1 -1 -1 -1 -1 -0 -0 -0 -0 -1 -1 -1 -1 -1 -2 -3 -3 -3 -3 -2 -1 -0 0 0 -0 -0 -0 -0 -0 -0 -0 0 0 0 -0 1 1 0 -2 -1 -1 -0 0 -0 -0 -0 -0 -0 -1 -1 -2 -0 0 0 -0 -0 -0 -0 -0 -0 -0 -0 -0 -0 -0 -0 -1 -1 -0 -0 -0
-1 -1 -1 -0 -0 -0 -0 -0 -0 -0 -1 -1 -1 -1 -1 -1 -1 -1 -1 -1 -1 -1 -1 -1 -1 -1 -1 -1 -1 -1 -1 -1 -1 -1 -1 -1 -1 -0 -0 -0 -1 -1 -1 -1 -1 -1 -2 -2 -3 -2 -2 -2 -1 -1 -0 -0 -0 -0 -0 -0 -0 -0 -0 0 1 1 -0 1 1 0 -1 -0 0 0 1 0 0 -0 -0 -0 -0 -1 -2 -1 -0 -0 -0 -0 -0 -0 0 0 -0 -0 -0 -0 0 0 0 0 0 0 -0
-0 -1 -1 -0 -0 -0 0 0 -0 -0 -1 -1 -1 -1 -1 -1 -1 -1 -1 -1 -1 -1 -1 -1 -1 -1 -1 -1 -1 -1 -1 -1 -1 -1 -1 -1 -0 -0 -0 -0 -0 -0 -0 -0 0 -0 -1 -1 -1 -1 -2 -2 -1 -1 -0 -0 -0 -0 -0 -0 -0 -0 -0 0 1 1 1 1 1 0 0 1 1 1 0 0 0 0 -0 0 0 -0 -1 -1 -1 -0 -0 -0 -0 -0 0 0 0 -0 -0 0 1 1 1 1 1 1 -0
-0 -0 -0 -0 -0 -0 0 0 -0 -0 -1 -1 -1 -1 -1 -1 -1 -1 -1 -1 -1 -1 -1 -1 -1 -1 -1 -1 -1 -0 -0 -0 -1 -1 -1 -0 -0 -0 0 0 0 1 1 1 1 1 -0 -1 -1 -1 -1 -1 -1 -1 -1 -0 -0 -0 -0 -0 -0 -0 -0 0 1 1 2 2 2 1 2 1 1 1 0 0 0 0 0 0 1 1 -0 -1 -1 -1 -1 -0 -0 -0 -0 0 0 -0 0 1 1 1 1 1 1 1 0
0 0 0 -0 -0 -0 -0 -0 -0 -0 -1 -1 -1 -1 -1 -1 -1 -1 -1 -1 -1 -1 -1 -1 -0 -0 -0 -0 -0 -0 -0 -0 -0 -0 -0 -0 -0 0 0 0 0 1 1 1 2 1 -0 -1 -1 -1 -1 -1 -1 -1 -1 -0 -0 -0 -0 -0 -0 -0 -0 0 1 1 2 2 2 2 2 1 1 1 -0 -0 0 0 1 1 1 2 1 -1 -1 -1 -1 -1 -0 -0 -1 0 0 0 0 0 1 1 1 1 1 1 1
1 1 1 -0 -0 -1 -1 -1 -1 -1 -1 -1 -1 -1 -1 -1 -1 -1 -1 -1 -1 -1 -1 -1 -0 -0 -0 -0 -0 0 0 -0 -0 -0 -0 0 0 0 0 -0 -0 -0 -0 1 1 2 0 -1 -1 -1 -1 -0 -0 -0 -1 -0 -0 -0 -0 -0 -0 -0 0 1 1 1 2 1 2 2 1 1 1 1 0 1 1 1 1 1 2 3 3 1 -1 -1 -1 -1 -1 -1 -1 -0 -0 -0 -1 -0 -0 0 0 0 0 0 0
1 1 1 0 -0 -1 -1 -1 -1 -1 -1 -1 -1 -1 -1 -1 -1 -1 -1 -1 -1 -1 -1 -1 -1 -0 -0 -0 -0 -0 -0 -1 -1 -1 -0 -0 -0 -0 -0 -1 -1 -1 -1 -0 1 1 0 -1 -1 -1 -1 -0 -0 -0 -0 -0 -0 -0 -0 -0 -0 -0 0 1 1 1 2 1 1 1 1 1 1 1 1 2 2 1 1 1 2 2 3 2 1 0 -1 -0 -1 -1 -1 -1 -1 -1 -1 -1 -0 -1 -1 -1 -1 -0 -0
1 1 1 1 0 -0 -1 -1 -1 -1 -1 -1 -1 -1 -1 -1 -1 -0 -0 -0 -0 -1 -1 -1 -1 -0 -0 -0 -1 -1 -1 -2 -2 -1 -1 -1 -1 -1 -1 -1 -1 -1 -1 -1 0 1 -0 -2 -2 -1 -1 -0 -0 -0 -1 -1 -0 -0 -0 -0 -0 0 0 0 1 1 2 2 1 1 1 1 0 1 2 2 2 1 1 1 1 1 2 2 2 1 0 0 -0 -1 -2 -1 -1 -1 -0 -0 -0 -1 -1 -2 -1 -1 -1
1 1 1 0 0 -0 -0 -1 -1 -1 -1 -1 -1 -1 -0 -1 -0 -0 -0 -0 -0 -1 -1 -1 -1 -0 -0 -1 -1 -2 -2 -1 -1 -1 -1 -1 -1 -1 -1 -1 -1 -1 -1 -1 -0 0 -0 -2 -2 -1 -1 -0 -0 -0 -1 -0 -0 -0 -0 -0 -0 0 1 0 1 1 1 1 1 1 1 1 0 1 1 1 1 1 1 0 0 1 1 1 1 1 1 1 -0 -1 -1 -1 -1 -0 0 0 0 -0 -1 -1 -1 -1 -1
-0 0 0 0 -0 -0 -1 -1 -1 -1 -1 -1 -1 -1 -0 -1 -0 -0 -0 0 -0 -0 -1 -1 -1 -1 -1 -1 -1 -1 -0 0 1 0 -0 -0 -1 -1 -1 -1 -1 -1 -1 -0 0 0 -1 -2 -2 -1 -1 -0 -0 -0 -0 -0 -0 -0 -0 -0 -0 0 1 1 1 1 1 1 1 1 2 1 1 1 1 1 1 1 1 1 1 1 1 0 1 1 1 1 -0 -1 -1 -1 -1 -0 -0 0 0 0 -0 -0 -1 -1 -1
-0 0 0 -0 -0 -1 -1 -1 -1 -1 -1 -1 -1 -1 -0 -1 -1 -0 -0 0 0 -0 -1 -1 -1 -1 -1 -1 -0 0 1 1 1 1 0 0 -0 -1 -1 -1 -1 -1 -1 -0 0 0 -1 -2 -2 -1 -1 -0 -0 -0 -0 -0 -0 -0 -1 -0 -0 0 0 1 0 0 0 1 1 0 1 1 1 1 0 0 1 1 1 1 1 1 1 -0 0 1 1 1 1 0 -1 -1 -1 -1 -0 -0 0 0 0 -0 -1 -1 -1
-1 -0 0 -0 -0 -1 -1 -1 -1 -1 -1 -1 -1 -1 -0 -1 -1 -1 -0 0 0 -0 -1 -1 -1 -1 -0 -0 0 1 1 1 1 1 1 0 -0 -0 -0 -1 -1 -1 -1 -0 1 1 -1 -2 -2 -1 -1 -1 -0 -0 -0 -0 -0 -0 -1 -0 -0 -0 0 0 0 -0 -0 0 0 0 0 1 0 -0 -0 -0 -0 0 0 0 0 0 1 0 -0 -0 0 1 1 1 -0 -1 -1 -1 -1 -1 -0 0 0 0 -0 -1 -1
-2 -0 0 0 -0 -1 -2 -2 -2 -1 -1 -1 -1 -0 -0 -0 -1 -1 -1 -1 -1 -1 -1 -1 -0 0 1 1 1 0 -0 -0 0 0 1 0 0 -0 -0 -0 -1 -1 -1 -0 1 1 -1 -2 -2 -1 -1 -1 -1 -0 -0 -0 -0 -0 -0 -0 -0 -0 0 0 -0 -0 -0 0 0 0 0 0 0 -0 -1 -0 -0 -0 -0 -0 -0 0 0 -0 -1 -1 -0 0 0 1 0 -0 -1 -1 -0 -0 -0 0 1 1 0 -0 -0
-2 -1 -0 0 -0 -1 -1 -2 -2 -2 -2 -1 -1 -1 -1 -1 -1 -1 -1 -1 -1 -1 -1 -1 -0 0 1 1 0 -0 -0 -0 -0 0 0 0 0 0 -0 -0 -0 -1 -1 -0 1 1 -0 -2 -2 -2 -2 -1 -1 -1 -0 -0 -0 -0 -0 -0 -0 -0 -0 0 -0 -0 -1 -0 -0 0 1 0 0 -0 -0 -1 -1 -0 -0 -0 -0 -0 -1 -0 -0 -0 -0 -0 0 1 -0 -0 -0 -0 0 0 0 1 1 1 1 0 -0
-2 -2 -1 -0 -0 -1 -1 -1 -2 -2 -2 -2 -2 -3 -3 -2 -2 -2 -1 -1 -0 -0 -0 -0 -0 -0 -0 -0 -0 -1 -1 -1 -0 -0 0 0 0 0 -0 -0 -0 -1 -1 -0 0 1 0 -2 -2 -2 -2 -2 -1 -1 -1 -0 -0 -0 -0 -0 -0 -0 -0 -0 -0 -0 -0 -0 -0 0 1 0 0 0 -1 -0 -0 -0 -1 -1 -0 -0 -0 0 0 -0 -1 -0 0 0 -0 -0 -0 -0 -0 -0 -0 0 1 1 0 0 0
-1 -2 -1 -1 -0 -0 -1 -1 -1 -2 -3 -4 -4 -4 -3 -2 -2 -1 -1 -0 0 0 0 0 -0 -0 -0 -1 -1 -1 -1 -1 -1 -0 0 0 0 0 0 -0 -0 -0 -1 -0 0 1 1 -1 -2 -3 -2 -2 -1 -1 -1 -0 -0 -0 -0 -0 -0 -0 -0 -0 -0 -0 -0 -0 -0 -0 0 0 0 -0 -0 -0 -0 -0 -1 -1 -1 0 1 0 0 -0 -0 -0 -0 -0 -0 -0 -0 -0 -0 -0 -0 0 1 0 0 0 0
-1 -2 -2 -1 -0 -0 -1 -0 -1 -1 -3 -4 -4 -3 -2 -2 -1 -1 -0 0 1 1 1 1 0 0 0 -0 -0 -1 -1 -1 -1 -1 -0 0 0 0 0 -0 -0 -1 -0 -0 0 1 1 -0 -2 -3 -3 -2 -1 -1 -1 -0 -0 -0 -1 -1 -0 -0 0 0 0 -0 -0 -0 -0 -0 -0 0 0 -0 -0 -0 -0 -0 -1 -1 -1 0 1 1 1 0 -0 0 -0 -0 0 0 -0 -0 -0 -0 -0 0 0 0 0 0 0
-2 -3 -1 -0 0 0 0 1 1 -0 -2 -3 -3 -3 -2 -1 0 0 0 0 0 0 1 1 1 1 1 1 -0 -0 -1 -1 -1 -1 -1 -0 0 0 0 -0 -0 -1 -1 -0 0 1 1 1 -1 -3 -3 -2 -1 -1 -1 -0 -0 -0 -1 -0 -0 -0 0 0 0 0 -0 -0 -0 -0 -0 -0 -0 -0 -0 -0 0 -0 -1 -1 -0 -0 0 0 0 0 -0 -0 -0 -0 0 0 -0 -0 -0 -0 -0 -0 -0 0 0 0 0
-3 -2 2 3 3 2 1 1 2 1 -0 -2 -3 -2 -1 -0 1 0 -0 -0 -0 -0 0 0 1 1 1 1 0 -0 -0 -1 -1 -1 -2 -1 -1 -0 -0 -0 -0 -1 -1 -1 -0 0 1 1 -1 -2 -3 -2 -1 -1 -1 -1 -0 -0 -0 -0 -0 0 0 0 0 0 0 0 -0 -0 -0 -0 -0 -0 -0 -1 -0 -0 -0 -0 -0 -0 -0 -0 -0 -0 -0 -0 -0 -0 -0 -0 -0 -0 -0 -0 -0 -0 -0 -0 -0 -0 -0
-1 0 5 5 4 2 1 1 2 2 1 -0 -1 -1 -1 -0 -0 -1 -1 -1 -1 -0 -0 -0 -0 0 0 0 -0 -0 -0 -0 -1 -1 -2 -1 -1 -1 -1 -0 -0 -1 -1 -1 -1 -0 0 1 0 -2 -3 -2 -1 -1 -1 -1 -1 -1 -1 -0 -0 -0 0 0 0 1 1 0 0 -0 -0 -0 -0 -0 -0 -1 -1 -0 -0 -0 -0 -0 -0 -0 -0 -0 -0 -0 -0 -0 -0 -0 -0 -0 -0 -0 -0 -1 -1 -1 -1 -0 -0
1 2 4 4 2 0 -0 1 2 2 2 2 1 0 -1 -1 -2 -2 -1 -1 -1 -1 -1 -1 -1 -0 0 0 -0 -0 -0 -0 -0 -1 -1 -1 -1 -1 -1 -1 -1 -1 -1 -1 -1 -1 -0 1 0 -1 -3 -2 -1 -1 -1 -1 -1 -1 -1 -0 -0 0 0 0 0 0 1 1 1 1 0 0 0 -0 -0 -0 -1 -1 -0 -0 -1 -1 -1 -1 -1 -1 -1 -1 -1 -0 -0 -0 -0 -0 -0 -0 -0 -1 -1 -1 -1 -1 -1
0 1 2 1 0 -0 1 1 1 2 3 4 2 1 -1 -2 -2 -2 -1 -1 -1 -1 -1 -1 -1 -0 1 1 0 -0 -0 -0 -0 -1 -1 -1 -1 -1 -1 -1 -1 -1 -1 -1 -1 -1 -1 -0 0 -0 -2 -2 -1 -1 -0 -1 -1 -1 -1 -1 -0 0 1 1 1 0 0 1 1 1 1 1 0 0 -0 -0 -1 -1 -1 -1 -1 -1 -1 -1 -1 -1 -1 -1 -1 -0 -0 -0 -0 -0 -0 -0 -0 -0 -0 -1 -1 -1 -1
-2 -1 -2 -2 -1 1 2 1 1 2 4 4 2 -0 -2 -2 -2 -2 -1 -1 -1 -1 -1 -1 -0 0 1 2 1 0 -1 -1 -1 -1 -1 -1 -1 -1 -1 -1 -1 -1 -1 -1 -1 -1 -1 -1 -0 -0 -1 -1 -1 -1 -0 -0 -1 -1 -2 -1 -0 0 1 1 1 1 0 0 1 1 1 1 0 0 -0 -0 -1 -1 -1 -1 -1 -1 -1 -1 -1 -1 -1 -1 -0 -0 -0 -0 -0 0 -0 -0 -0 -0 -0 -0 -1 -1 -1
-3 -3 -4 -4 -2 -0 1 1 2 2 3 2 1 -0 -1 -2 -1 -1 -0 -0 -0 -0 -0 -0 0 0 1 1 1 0 -1 -1 -1 -1 -1 -1 -0 -0 -1 -1 -1 -1 -1 -1 -1 -1 -1 -1 -1 -0 -1 -1 -1 -1 -1 -0 -0 -1 -1 -1 -1 0 1 1 1 1 1 1 1 1 1 1 0 -0 -0 -0 -1 -1 -1 -1 -1 -0 -0 -0 -0 -0 -1 -1 -1 -0 -0 -0 -0 -0 -0 -0 -0 -0 -0 -0 -0 -1 -1
-4 -4 -4 -4 -2 -0 1 1 2 2 2 1 0 -0 -1 -1 -1 -1 -0 -0 -0 0 1 1 0 -0 -0 0 0 -0 -0 -1 -1 -1 -1 -1 -0 -0 -0 -0 -1 -1 -1 -1 -1 -1 -1 -1 -1 -1 -0 -1 -1 -1 -1 -1 -0 -0 -1 -1 -1 -0 0 1 1 1 1 1 1 1 1 1 0 0 -0 -0 -0 -0 -0 -0 -0 -0 -0 -0 -1 -1 -1 -1 -1 -1 -1 -1 -0 -0 -0 -0 -0 -0 -0 -0 -0 -1 -1
-6 -6 -4 -3 -1 -0 1 1 1 1 1 0 0 0 -0 -0 -1 -1 -1 -0 -0 0 0 0 -0 -1 -1 -1 -0 -0 -0 -1 -1 -1 -0 -0 -0 -0 -0 -0 -0 -1 -1 -1 -1 -1 -1 -1 -2 -1 -1 -0 -0 -0 -1 -1 -1 -0 -1 -1 -1 -0 -1 -0 -0 0 1 1 2 2 2 2 1 1 1 1 0 0 0 0 0 0 0 -0 -0 -0 -0 -1 -1 -1 -1 -1 -1 -1 -0 -0 -0 -0 -0 -0 -0 -1 -0
-6 -5 -4 -2 -1 0 0 0 -0 -0 -0 -0 0 0 0 -0 -1 -1 -1 -1 -1 -1 -1 -1 -1 -1 -2 -1 -1 -1 -1 -1 -1 -0 -0 -0 -0 -0 -0 -0 -0 -1 -1 -1 -1 -1 -1 -1 -1 -1 -1 -1 -0 0 0 0 -0 -1 -1 -1 -1 -1 -1 -1 -1 -1 -0 0 1 2 2 2 1 1 1 1 1 1 1 1 1 1 1 1 1 0 0 0 -0 -0 -0 -1 -0 -0 -0 -0 -0 -0 -0 -1 -1 -0 -0
-4 -3 -2 -0 1 1 0 -0 -0 -1 -1 -0 0 0 0 -0 -1 -1 -2 -2 -2 -2 -2 -2 -2 -2 -2 -2 -2 -2 -1 -1 -1 -1 -1 -0 -0 -0 -0 -0 -0 -1 -1 -1 -1 -1 -1 -1 -1 -1 -1 -1 -1 -0 0 0 0 -0 -1 -1 -1 -1 -1 -1 -1 -1 -1 -1 -0 0 0 0 1 1 1 1 1 1 1 1 1 1 1 1 1 1 1 1 1 0 0 -0 -0 -0 -0 -0 -0 -0 -1 -1 -1 -0 -0
-1 -0 1 2 3 3 1 -0 -1 -1 -1 -0 0 0 0 -0 -1 -1 -2 -2 -2 -2 -3 -3 -3 -3 -2 -2 -2 -2 -2 -1 -1 -1 -1 -1 -0 -0 -1 -1 -1 -1 -1 -1 -1 -1 -1 -1 -1 -1 -1 -1 -1 -1 -0 -0 -0 -0 -0 -0 0 1 1 1 0 0 -0 -0 -0 -0 -0 -0 0 0 0 1 1 0 0 0 0 0 0 1 1 1 1 1 1 1 1 0 0 0 0 0 -0 -0 -1 -1 -0 -0 -0
1 1 3 4 5 4 3 1 -0 -1 -1 -0 -0 0 0 0 -0 -1 -2 -2 -2 -2 -3 -3 -3 -2 -2 -2 -2 -2 -1 -1 -1 -1 -1 -1 -1 -1 -1 -0 -0 -0 -1 -1 -1 -1 -1 -1 -1 -1 -1 -1 -1 -1 -1 -0 -0 -0 0 1 2 2 2 2 1 1 1 1 1 1 1 0 0 0 0 0 0 0 -0 -0 -0 -0 -0 -0 0 0 1 1 1 1 1 1 1 1 1 1 0 -0 -0 -0 -0 -0 -0
0 1 2 3 4 4 3 1 0 -1 -1 -1 -0 0 1 1 0 -0 -1 -1 -2 -2 -2 -3 -3 -2 -2 -2 -2 -1 -1 -1 -1 -1 -1 -1 -1 -1 -0 -0 -0 -0 -1 -1 -1 -1 -1 -1 -1 -1 -1 -1 -1 -1 -1 -0 0 1 1 1 1 2 2 1 1 1 1 1 1 1 1 1 1 0 0 0 -0 -0 -0 -1 -1 -1 -1 -0 -0 -0 0 0 0 0 0 1 1 1 1 1 0 0 -0 -0 -0 -0 -0
0 1 1 2 2 2 2 1 0 -1 -1 -1 -0 0 0 1 0 0 -0 -1 -1 -2 -2 -2 -2 -2 -2 -2 -2 -1 -1 -1 -1 -1 -1 -1 -1 -0 -0 0 0 -0 -1 -2 -2 -2 -1 -1 -1 -1 -1 -1 -1 -1 -0 0 0 0 -0 -0 -0 -0 0 -0 -0 -0 0 0 1 1 1 0 0 -0 -0 -0 -0 0 0 -0 -0 -0 -1 -0 -0 -0 -0 -0 -0 -0 -0 -0 0 1 1 1 0 0 0 0 0 0 -0
1 1 1 1 1 2 1 1 -0 -1 -1 -1 -1 -0 -0 -0 0 0 0 -0 -1 -2 -2 -2 -2 -2 -2 -2 -2 -1 -1 -2 -1 -1 -1 -1 -1 -0 0 0 0 -0 -1 -2 -2 -2 -2 -2 -2 -2 -1 -1 -1 -1 -0 0 -0 -0 -1 -1 -1 -1 -1 -1 -1 -1 -1 -1 -1 -0 -1 -1 -1 -1 -1 -0 0 0 1 0 0 -0 -0 -0 -0 -0 -0 -0 -1 -1 -0 -0 -0 0 0 0 0 0 0 1 0 0 -0
0 1 1 1 1 1 1 0 -0 -1 -1 -1 -1 -1 -1 -1 -0 -0 0 -0 -0 -1 -1 -1 -2 -2 -2 -2 -1 -1 -2 -2 -2 -2 -1 -1 -1 -0 0 0 -0 -0 -1 -1 -2 -2 -2 -2 -2 -2 -2 -1 -1 -0 -0 -0 -1 -1 -2 -2 -2 -2 -1 -1 -2 -2 -2 -2 -2 -2 -2 -2 -1 -1 -1 -1 -0 0 1 1 0 0 0 -0 -0 -0 -0 -0 -1 -1 -1 -0 -0 0 0 0 0 0 1 1 1 0 -0
1 1 1 1 1 1 1 0 -0 -1 -1 -1 -1 -1 -1 -1 -1 -1 -1 -0 -0 -1 -1 -1 -2 -2 -3 -2 -2 -2 -2 -2 -2 -2 -2 -1 -0 -0 -0 -0 -0 -0 -1 -1 -2 -2 -2 -2 -2 -2 -2 -1 -1 -0 -0 -1 -2 -2 -2 -2 -2 -2 -2 -2 -2 -2 -3 -3 -3 -2 -2 -2 -2 -1 -1 -1 -1 -0 0 0 0 0 0 0 0 0 -0 -0 -1 -1 -1 -0 -0 -0 0 0 1 1 1 1 1 0 -0
2 2 2 2 2 1 1 0 -0 -1 -1 -1 -1 -1 -1 -1 -2 -2 -1 -1 -1 -1 -1 -1 -1 -2 -3 -3 -2 -2 -2 -2 -2 -2 -2 -1 -0 -0 -1 -1 -1 -1 -1 -1 -2 -2 -2 -2 -2 -2 -1 -1 -1 -1 -1 -2 -2 -2 -2 -2 -2 -2 -1 -1 -1 -1 -2 -2 -2 -2 -2 -1 -1 -1 -1 -1 -1 -1 -1 -0 -0 -0 -0 -0 -0 -0 -0 -1 -1 -1 -1 -1 -0 -0 0 1 1 1 1 1 1 0 -0
2 2 3 3 2 1 0 -0 -1 -1 -1 0 1 1 0 -1 -2 -2 -1 -1 -1 -1 -1 -1 -2 -2 -3 -3 -3 -3 -3 -2 -2 -2 -2 -1 -1 -1 -1 -1 -1 -1 -1 -2 -2 -2 -2 -2 -2 -2 -1 -1 -1 -1 -2 -2 -2 -2 -1 -1 -1 -1 -0 -0 0 -0 -0 -1 -1 -1 -1 -1 -1 -1 -1 -2 -2 -2 -1 -1 -1 -1 -0 -0 -0 -0 -1 -1 -1 -1 -1 -1 -0 -0 0 1 1 1 1 1 1 1 0
1 2 2 2 1 0 -0 -1 -1 -1 -1 1 2 2 1 -1 -2 -2 -1 -1 -1 -1 -1 -2 -2 -2 -3 -3 -3 -3 -3 -2 -2 -2 -2 -1 -2 -2 -2 -2 -1 -1 -1 -2 -2 -2 -1 -1 -1 -1 -1 -1 -1 -2 -2 -2 -1 -1 -0 -1 -0 -0 0 1 1 0 0 -0 -0 -0 -0 -1 -1 -2 -2 -2 -2 -2 -2 -2 -1 -1 -1 -1 -1 -1 -1 -1 -1 -1 -1 -1 -1 -0 0 1 1 1 1 1 1 1 1
1 1 1 1 0 -0 -1 -2 -2 -2 -1 0 1 2 -0 -2 -2 -2 -1 -1 -1 -1 -1 -2 -2 -2 -2 -3 -3 -3 -2 -2 -2 -1 -1 -1 -1 -1 -2 -1 -1 -1 -2 -2 -1 -1 -1 -1 -1 -1 -1 -1 -1 -2 -2 -1 -0 -0 -0 -0 -1 -0 -0 -0 -0 -0 -0 -1 -1 -1 -1 -2 -2 -2 -3 -3 -3 -3 -2 -2 -2 -2 -2 -2 -1 -1 -1 -1 -1 -1 -1 -1 -1 -0 -0 0 1 1 1 1 1 1 1
1 2 2 1 -0 -1 -1 -2 -2 -2 -1 -0 0 0 -1 -3 -2 -2 -1 -1 -0 -0 -1 -2 -2 -3 -2 -2 -2 -2 -2 -1 -1 -1 -1 -1 -0 -1 -1 -1 -1 -2 -1 -1 -1 -1 -1 -1 -0 -0 -0 -1 -1 -1 -1 -0 -0 -0 -1 -1 -1 -1 -1 -1 -1 -1 -2 -2 -2 -2 -2 -2 -2 -2 -2 -2 -2 -2 -2 -2 -2 -2 -2 -2 -2 -1 -1 -1 -1 -0 -0 -0 -1 -1 -0 0 1 1 1 1 1 1 2
2 2 2 1 -0 -1 -1 -2 -2 -2 -0 -0 -0 -1 -2 -3 -3 -2 -1 -0 1 1 -0 -1 -2 -2 -2 -2 -2 -3 -2 -1 -1 -1 -1 -1 -1 -1 -1 -2 -2 -2 -1 -1 -0 -0 -0 -0 0 0 -0 -1 -1 -0 -0 -1 -1 -1 -0 -0 -0 -1 -1 -1 -2 -2 -2 -2 -2 -2 -2 -2 -2 -2 -2 -2 -2 -2 -2 -2 -2 -2 -2 -2 -2 -2 -1 -1 -1 -1 -1 -1 -1 -1 -1 -1 -0 0 1 1 1 1 1
3 3 2 1 0 -0 -2 -3 -2 -1 1 0 0 -0 -2 -3 -4 -3 -1 0 1 1 0 -1 -2 -2 -2 -2 -3 -3 -3 -1 -1 -1 -1 -1 -1 -1 -1 -1 -2 -2 -1 -1 -0 -0 -1 -1 -1 -0 0 -0 -0 -0 0 0 0 1 1 0 0 -0 -0 -1 -1 -1 -1 -1 -1 -1 -1 -1 -1 -1 -1 -1 -1 -2 -1 -1 -1 -2 -2 -2 -2 -2 -2 -2 -2 -1 -1 -1 -1 -2 -2 -2 -1 -1 -1 -0 -0 -0 -0
3 3 2 2 1 -0 -2 -2 -1 -0 0 1 1 1 -1 -2 -3 -3 -2 -0 1 1 0 -1 -1 -2 -3 -3 -4 -4 -3 -2 -1 -1 -1 -1 -1 -1 -1 -1 -1 -1 -1 -1 -1 -2 -1 -0 -0 0 1 0 1 1 1 1 1 1 2 1 1 0 0 -0 -0 -1 -1 -1 -1 -1 -1 -1 -1 -1 -1 -1 -1 -1 -1 -1 -2 -2 -2 -2 -2 -2 -3 -3 -3 -2 -2 -2 -2 -2 -2 -2 -3 -3 -2 -2 -2 -2 -2
2 3 2 2 2 1 -0 -0 -0 -0 -0 1 1 1 -0 -1 -2 -3 -3 -1 -0 -0 -0 -1 -2 -2 -4 -4 -4 -4 -4 -2 -1 -1 -1 -1 -1 -1 -1 -1 -1 -1 -2 -1 -1 -1 -1 -1 1 2 1 1 1 1 1 2 2 2 2 1 1 0 1 0 0 -0 -0 0 0 0 -0 -0 -0 -0 -0 -0 -1 -1 -1 -1 -1 -1 -1 -2 -2 -2 -2 -3 -3 -3 -3 -2 -2 -2 -2 -2 -3 -3 -4 -4 -4 -4 -4
3 3 2 2 2 1 1 0 -0 -1 -1 0 1 1 1 0 -1 -2 -3 -2 -2 -1 -0 -0 -1 -2 -4 -5 -5 -4 -3 -2 -2 -1 -1 -1 -1 -1 -1 -1 -2 -2 -1 -1 -1 -1 -1 -1 -2 -2 -1 0 0 0 1 2 2 2 1 1 1 0 0 1 0 0 -0 -0 0 0 1 0 -0 -1 -1 -1 -1 -1 -1 -1 -1 -1 -0 -1 -1 -1 -1 -2 -2 -2 -2 -2 -2 -2 -2 -2 -3 -3 -3 -3 -3 -3 -3
3 3 2 2 2 2 0 -1 -1 -1 -1 -0 0 1 1 1 0 -1 -2 -2 -2 -1 -0 -0 -1 -2 -4 -5 -5 -5 -3 -2 -2 -1 -1 -1 -1 -1 -1 -0 -0 -0 -1 -1 -1 -1 -1 -1 -2 -3 -2 -1 1 2 1 1 1 2 1 1 0 -0 0 -0 -0 -0 -0 -0 -0 -0 -0 -0 -1 -1 -1 -1 -1 -1 -1 -0 -0 -0 -0 -0 -0 -0 -0 -1 -1 -1 -1 -2 -2 -2 -2 -2 -2 -2 -2 -1 -1 -1 -1
3 3 2 2 2 1 0 -1 -2 -2 -1 -0 -0 0 0 0 0 0 -0 -1 -2 -2 -2 -0 0 -0 -2 -5 -6 -6 -4 -2 -1 -1 -1 -1 -1 -1 -1 -0 -1 -1 -1 -1 -1 -1 -2 -2 -2 -2 -2 -3 -2 0 2 1 -0 -0 0 0 0 -0 -0 -0 -0 -0 -0 -0 -1 -1 -1 -1 -1 -1 -2 -2 -1 -1 -1 -1 -0 -0 -0 -0 -0 -0 -0 -0 -1 -1 -1 -1 -2 -2 -2 -2 -2 -2 -1 -1 -1 -1 -1
3 3 2 1 2 2 1 -1 -1 -1 -1 -0 0 0 0 0 0 0 0 -0 -1 -2 -2 -1 1 1 -1 -4 -6 -7 -5 -3 -1 -1 -1 -1 -1 -1 -1 -1 -1 -1 -1 -1 -1 -1 -1 -2 -3 -2 -2 -3 -4 -5 -3 0 -0 -2 -3 -2 -2 -1 -1 -0 -0 -0 -0 -0 -1 -1 -2 -1 -1 -1 -2 -2 -2 -1 -1 -1 -0 -0 -0 -1 -1 -1 -1 -1 -1 -1 -1 -1 -1 -1 -2 -2 -2 -2 -2 -1 -1 -1 -0
2 2 0 1 3 4 1 -0 -1 -1 -0 1 1 1 1 1 1 0 -0 -0 -1 -2 -3 -0 2 2 0 -3 -6 -7 -6 -4 -2 -1 -1 -1 -1 -1 -1 -1 -1 -1 -1 -1 -1 -1 -1 -2 -2 -3 -3 -2 -3 -4 -8 -4 -2 -2 -3 -2 -3 -3 -2 -0 0 0 -0 -0 -0 -1 -1 -2 -2 -2 -2 -2 -2 -2 -1 -1 -1 -0 -0 -1 -1 -2 -2 -2 -2 -1 -1 -1 -1 -1 -1 -1 -2 -2 -2 -2 -2 -1 -1
Height
1538 1538 1538 1538 1538 1538 1538 1539 1539 1539 1539 1539 1540 1540 1540 1541 1541 1541 1542 1542 1542 1542 1542 1542 1542 1543 1543 1543 1543 1543 1543 1543 1544 1544 1544 1544 1544 1544 1544 1544 1545 1545 1545 1545 1545 1545 1545 1545 1545 1545 1545 1545 1545 1545 1545 1545 1545 1545 1545 1545 1545 1545 1545 1545 1545 1545 1544 1544 1544 1543 1543 1543 1543 1543 1543 1543 1543 1543 1543 1543 1543 1543 1543 1542 1542 1542 1542 1542 1542 1542 1542 1542 1542 1542 1542 1542 1542 1542 1542 1542 1543 1543 1543
1538 1538 1538 1538 1538 1539 1539 1539 1539 1539 1540 1540 1540 1540 1541 1541 1541 1542 1542 1542 1542 1542 1542 1543 1543 1543 1543 1543 1543 1543 1543 1544 1544 1544 1544 1544 1544 1544 1545 1545 1545 1545 1545 1545 1545 1545 1545 1545 1545 1545 1545 1545 1545 1545 1545 1545 1545 1545 1545 1544 1544 1544 1544 1544 1544 1544 1544 1544 1543 1543 1543 1543 1543 1543 1543 1543 1543 1543 1543 1542 1542 1542 1542 1542 1542 1542 1542 1542 1542 1542 1542 1542 1542 1542 1542 1542 1542 1542 1542 1542 1542 1542 1542
1538 1538 1539 1539 1539 1539 1539 1540 1540 1540 1540 1540 1541 1541 1541 1542 1542 1542 1542 1542 1542 1542 1543 1543 1543 1543 1543 1543 1543 1544 1544 1544 1544 1544 1544 1544 1545 1545 1545 1545 1545 1545 1545 1545 1545 1545 1545 1545 1545 1545 1545 1545 1545 1545 1545 1545 1544 1544 1544 1544 1544 1544 1544 1544 1544 1544 1544 1543 1543 1543 1543 1543 1543 1543 1543 1543 1543 1542 1542 1542 1542 1542 1543 1542 1542 1542 1542 1542 1542 1542 1542 1542 1542 1542 1542 1542 1542 1542 1542 1542 1542 1542 1542
1539 1539 1539 1539 1539 1540 1540 1540 1540 1540 1541 1541 1541 1541 1542 1542 1542 1542 1542 1542 1543 1543 1543 1543 1543 1543 1543 1543 1544 1544 1544 1544 1544 1544 1544 1544 1545 1545 1545 1545 1545 1545 1545 1545 1545 1545 1545 1545 1545 1545 1545 1545 1545 1545 1545 1544 1544 1544 1544 1544 1544 1544 1544 1544 1544 1544 1543 1543 1543 1543 1543 1543 1543 1543 1543 1543 1543 1542 1542 1542 1542 1542 1542 1542 1542 1542 1542 1542 1542 1542 1542 1542 1542 1542 1542 1542 1542 1542 1542 1542 1542 1542 1542
1539 1539 1539 1540 1540 1540 1540 1540 1540 1541 1541 1541 1542 1542 1542 1542 1542 1542 1542 1543 1543 1543 1543 1543 1543 1543 1543 1544 1544 1544 1544 1544 1544 1544 1544 1544 1545 1545 1545 1545 1545 1545 1545 1545 1545 1545 1545 1545 1545 1544 1544 1544 1545 1544 1544 1544 1544 1544 1544 1544 1544 1544 1544 1544 1544 1543 1543 1543 1543 1543 1543 1543 1543 1543 1543 1542 1542 1542 1542 1542 1542 1542 1542 1542 1542 1542 1542 1542 1542 1541 1541 1541 1541 1541 1541 1541 1541 1541 1541 1541 1541 1541 1541
1539 1540 1540 1540 1540 1540 1540 1541 1541 1541 1541 1542 1542 1542 1542 1542 1542 1542 1543 1543 1543 1543 1543 1543 1543 1544 1544 1544 1544 1544 1544 1544 1544 1544 1544 1544 1545 1545 1545 1545 1545 1545 1545 1545 1545 1545 1545 1545 1544 1544 1544 1544 1544 1544 1544 1544 1544 1544 1544 1544 1544 1544 1544 1544 1543 1543 1543 1543 1543 1542 1542 1542 1542 1542 1542 1542 1542 1542 1542 1542 1542 1541 1542 1541 1541 1541 1541 1541 1541 1541 1541 1541 1541 1541 1541 1541 1541 1541 1541 1541 1541 1541 1541
1540 1540 1540 1540 1541 1541 1541 1541 1541 1541 1542 1542 1542 1542 1542 1542 1543 1543 1543 1543 1543 1543 1544 1544 1544 1544 1544 1544 1544 1544 1544 1544 1544 1544 1544 1544 1544 1545 1545 1545 1545 1545 1545 1545 1545 1545 1545 1544 1544 1544 1544 1544 1544 1544 1544 1544 1544 1544 1544 1544 1544 1544 1544 1543 1543 1543 1543 1542 1542 1542 1542 1542 1542 1542 1542 1542 1542 1542 1542 1542 1541 1541 1541 1541 1541 1541 1541 1541 1540 1540 1540 1540 1540 1540 1540 1540 1540 1540 1541 1541 1541 1541 1541
1540 1540 1540 1541 1541 1541 1541 1541 1542 1542 1542 1542 1542 1542 1543 1543 1543 1543 1543 1543 1544 1544 1544 1544 1544 1544 1544 1544 1544 1544 1544 1544 1544 1544 1544 1544 1544 1544 1545 1545 1545 1545 1545 1545 1545 1545 1544 1544 1544 1544 1543 1543 1543 1543 1544 1544 1544 1544 1544 1544 1544 1544 1543 1543 1543 1543 1542 1542 1542 1542 1542 1542 1541 1541 1541 1541 1541 1541 1541 1541 1541 1540 1540 1540 1540 1540 1539 1539 1540 1540 1540 1540 1540 1539 1539 1540 1540 1540 1540 1540 1540 1540 1540
1540 1540 1541 1541 1541 1541 1542 1542 1542 1542 1542 1542 1543 1543 1543 1543 1543 1543 1544 1544 1544 1544 1544 1544 1544 1544 1544 1544 1544 1544 1544 1544 1544 1544 1544 1544 1544 1544 1544 1544 1545 1545 1545 1545 1544 1544 1544 1544 1543 1543 1543 1543 1543 1543 1544 1544 1544 1544 1544 1544 1544 1543 1543 1543 1542 1542 1542 1542 1542 1542 1541 1541 1541 1541 1541 1541 1541 1541 1541 1540 1540 1540 1540 1540 1539 1539 1539 1539 1539 1539 1539 1539 1539 1539 1539 1539 1539 1539 1539 1539 1539 1539 1539
1540 1541 1541 1541 1542 1542 1542 1542 1542 1542 1542 1543 1543 1543 1543 1543 1543 1544 1544 1544 1544 1544 1544 1544 1544 1544 1544 1544 1544 1544 1544 1544 1544 1544 1544 1544 1544 1544 1544 1544 1544 1544 1544 1544 1544 1544 1544 1543 1543 1543 1543 1543 1543 1543 1544 1544 1544 1544 1543 1543 1543 1543 1543 1543 1542 1542 1542 1542 1541 1541 1541 1541 1541 1541 1541 1540 1540 1540 1540 1540 1540 1540 1539 1539 1539 1539 1539 1539 1538 1538 1538 1538 1538 1538 1538 1538 1538 1538 1539 1539 1539 1539 1539
1541 1541 1541 1542 1542 1542 1542 1542 1542 1542 1543 1543 1543 1543 1543 1543 1544 1544 1544 1544 1544 1544 1544 1544 1544 1544 1544 1544 1544 1544 1544 1544 1544 1544 1544 1544 1544 1544 1544 1544 1544 1544 1544 1544 1544 1544 1543 1543 1543 1543 1543 1543 1543 1543 1543 1543 1543 1543 1543 1543 1543 1543 1542 1542 1542 1542 1542 1541 1541 1540 1540 1540 1540 1540 1540 1540 1540 1539 1539 1539 1539 1539 1539 1538 1538 1538 1538 1538 1538 1538 1538 1538 1538 1538 1538 1538 1538 1538 1538 1538 1538 1538 1537
1541 1541 1542 1542 1542 1542 1542 1542 1542 1542 1543 1543 1543 1543 1543 1543 1544 1544 1544 1544 1544 1544 1544 1544 1544 1544 1544 1544 1544 1544 1544 1544 1544 1544 1544 1544 1544 1544 1544 1544 1544 1544 1544 1544 1543 1543 1543 1543 1542 1542 1543 1543 1543 1543 1543 1543 1543 1543 1543 1543 1542 1542 1542 1542 1542 1541 1541 1541 1540 1540 1540 1540 1540 1540 1539 1539 1539 1539 1539 1539 1538 1538 1538 1538 1537 1537 1537 1537 1537 1537 1537 1537 1537 1537 1537 1537 1537 1537 1537 1537 1537 1537 1537
1541 1541 1542 1542 1542 1542 1542 1542 1542 1543 1543 1543 1543 1543 1543 1543 1543 1544 1544 1544 1544 1544 1544 1544 1544 1544 1544 1544 1544 1544 1544 1544 1544 1544 1544 1544 1544 1544 1544 1544 1544 1544 1544 1543 1543 1543 1543 1542 1542 1542 1542 1542 1543 1543 1543 1542 1542 1542 1542 1542 1542 1542 1542 1541 1541 1541 1541 1541 1540 1540 1540 1539 1539 1539 1539 1538 1538 1538 1538 1538 1538 1537 1537 1537 1537 1537 1537 1537 1537 1537 1537 1537 1537 1537 1536 1536 1536 1536 1537 1536 1536 1536 1536
1541 1542 1542 1542 1542 1542 1542 1542 1542 1543 1543 1543 1543 1543 1543 1543 1543 1543 1544 1544 1544 1544 1544 1544 1544 1544 1544 1544 1544 1544 1544 1544 1544 1544 1544 1544 1544 1544 1544 1544 1544 1544 1544 1544 1543 1543 1542 1542 1542 1542 1542 1542 1542 1542 1542 1542 1542 1542 1542 1541 1541 1541 1541 1541 1541 1540 1540 1540 1540 1539 1539 1539 1539 1539 1538 1538 1538 1538 1538 1538 1537 1537 1536 1536 1536 1536 1536 1536 1536 1536 1536 1536 1536 1536 1536 1536 1536 1536 1536 1536 1536 1536 1536
1541 1542 1542 1542 1542 1542 1542 1542 1543 1543 1543 1543 1543 1543 1543 1543 1543 1543 1543 1544 1544 1544 1544 1544 1544 1544 1544 1544 1544 1544 1544 1544 1544 1544 1544 1544 1544 1544 1544 1544 1544 1544 1544 1544 1543 1543 1542 1542 1542 1541 1541 1541 1541 1541 1541 1541 1541 1541 1541 1541 1541 1540 1540 1540 1540 1540 1540 1540 1539 1539 1539 1539 1538 1538 1537 1537 1537 1537 1537 1537 1537 1536 1536 1536 1536 1536 1535 1535 1535 1535 1535 1535 1535 1535 1535 1535 1535 1535 1535 1535 1535 1535 1535
1541 1542 1542 1542 1542 1542 1542 1542 1542 1543 1543 1543 1543 1543 1543 1543 1543 1543 1543 1543 1544 1544 1544 1544 1544 1544 1544 1544 1544 1544 1544 1544 1544 1544 1544 1544 1544 1544 1544 1544 1544 1544 1544 1544 1543 1543 1542 1542 1541 1541 1541 1541 1541 1541 1541 1541 1540 1540 1540 1540 1540 1540 1540 1540 1540 1539 1539 1539 1539 1538 1538 1538 1537 1537 1537 1537 1537 1537 1537 1537 1537 1536 1535 1535 1535 1535 1535 1535 1535 1535 1535 1535 1534 1534 1534 1534 1534 1534 1534 1534 1534 1534 1534
1541 1542 1542 1542 1542 1542 1542 1542 1542 1542 1543 1543 1543 1543 1543 1543 1543 1543 1543 1543 1543 1544 1544 1544 1544 1544 1544 1544 1544 1544 1544 1543 1543 1544 1544 1544 1544 1544 1544 1544 1543 1543 1543 1543 1543 1542 1542 1541 1541 1540 1540 1540 1540 1540 1540 1540 1540 1539 1539 1539 1539 1539 1539 1539 1539 1539 1539 1538 1538 1538 1537 1537 1537 1537 1537 1537 1537 1537 1537 1537 1536 1536 1535 1535 1534 1534 1534 1534 1534 1534 1534 1534 1534 1533 1533 1533 1533 1533 1533 1533 1533 1533 1533
1541 1541 1542 1542 1542 1542 1542 1542 1542 1542 1542 1543 1543 1543 1543 1543 1543 1543 1543 1543 1543 1543 1543 1544 1544 1544 1544 1544 1544 1544 1543 1543 1543 1543 1543 1544 1544 1543 1543 1543 1543 1543 1543 1542 1542 1542 1541 1540 1540 1540 1539 1539 1539 1539 1539 1539 1539 1539 1539 1538 1538 1538 1538 1538 1538 1538 1538 1538 1538 1537 1537 1537 1537 1537 1537 1537 1536 1536 1536 1536 1536 1536 1535 1534 1534 1534 1533 1533 1533 1533 1533 1533 1533 1533 1533 1532 1532 1532 1532 1532 1532 1532 1532
1541 1541 1541 1542 1542 1542 1542 1542 1542 1542 1542 1542 1542 1542 1542 1543 1543 1543 1543 1543 1543 1543 1543 1543 1543 1543 1543 1543 1543 1543 1543 1543 1543 1543 1543 1543 1543 1543 1543 1542 1542 1542 1542 1542 1542 1541 1540 1539 1539 1539 1539 1539 1539 1539 1539 1538 1538 1538 1538 1538 1537 1537 1537 1538 1538 1538 1537 1537 1537 1537 1537 1536 1536 1536 1536 1536 1536 1536 1536 1536 1536 1535 1535 1534 1534 1533 1533 1533 1533 1533 1533 1533 1533 1532 1532 1532 1532 1532 1532 1531 1531 1531 1531
1540 1541 1541 1541 1541 1542 1542 1542 1542 1542 1542 1542 1542 1542 1542 1542 1543 1543 1543 1543 1543 1543 1543 1543 1543 1543 1543 1543 1543 1543 1543 1542 1542 1542 1543 1542 1542 1542 1542 1542 1542 1542 1541 1541 1541 1540 1539 1538 1538 1538 1538 1538 1538 1538 1538 1538 1537 1537 1537 1537 1537 1537 1537 1537 1537 1537 1537 1537 1536 1536 1536 1536 1536 1536 1536 1535 1535 1535 1535 1535 1535 1535 1534 1534 1533 1533 1532 1532 1532 1532 1532 1532 1532 1532 1532 1532 1532 1531 1531 1531 1531 1530 1530
1540 1540 1541 1541 1541 1541 1541 1541 1542 1542 1542 1542 1542 1542 1542 1542 1542 1543 1543 1543 1543 1543 1543 1543 1543 1543 1543 1543 1542 1542 1542 1542 1542 1542 1542 1542 1542 1542 1542 1541 1541 1541 1541 1540 1540 1540 1539 1537 1537 1537 1537 1537 1537 1537 1537 1537 1537 1537 1536 1536 1536 1536 1536 1536 1536 1536 1536 1536 1536 1535 1535 1535 1535 1535 1535 1534 1534 1534 1534 1534 1534 1534 1533 1533 1533 1533 1532 1532 1532 1532 1531 1532 1532 1532 1532 1531 1531 1531 1531 1530 1530 1530 1530
1540 1540 1540 1540 1541 1541 1541 1541 1541 1542 1542 1542 1542 1542 1542 1542 1542 1542 1542 1543 1543 1542 1542 1542 1542 1542 1542 1542 1542 1542 1542 1542 1542 1542 1542 1541 1541 1541 1541 1540 1540 1540 1540 1539 1539 1539 1538 1537 1536 1536 1536 1536 1536 1536 1536 1536 1536 1536 1536 1536 1535 1535 1535 1535 1535 1535 1535 1535 1535 1535 1535 1534 1534 1534 1534 1534 1534 1533 1533 1533 1533 1533 1533 1532 1532 1532 1532 1532 1531 1531 1531 1531 1531 1531 1531 1531 1531 1530 1530 1530 1529 1529 1529
1540 1540 1540 1540 1540 1540 1540 1541 1541 1541 1542 1542 1542 1542 1542 1542 1542 1542 1542 1542 1542 1542 1542 1542 1542 1542 1542 1542 1542 1542 1542 1542 1542 1542 1541 1541 1541 1540 1540 1540 1539 1539 1539 1538 1538 1538 1537 1536 1535 1535 1535 1535 1535 1536 1535 1535 1535 1535 1535 1535 1535 1535 1535 1535 1535 1535 1535 1535 1534 1534 1534 1534 1534 1533 1533 1533 1533 1533 1533 1533 1532 1532 1532 1532 1532 1532 1532 1531 1531 1530 1530 1530 1530 1530 1530 1530 1530 1530 1529 1529 1529 1529 1528
1539 1539 1539 1539 1539 1540 1540 1540 1541 1541 1541 1542 1542 1542 1542 1542 1542 1542 1542 1542 1542 1542 1542 1542 1542 1542 1542 1542 1542 1542 1542 1542 1542 1541 1541 1541 1540 1540 1539 1539 1538 1538 1538 1537 1537 1537 1536 1535 1534 1534 1534 1534 1535 1535 1535 1534 1534 1534 1534 1534 1534 1534 1534 1534 1534 1534 1534 1534 1534 1533 1533 1533 1533 1532 1532 1532 1532 1532 1532 1532 1532 1532 1532 1532 1531 1531 1531 1531 1530 1530 1529 1529 1529 1529 1529 1529 1529 1529 1529 1528 1528 1528 1527
1539 1539 1539 1539 1539 1539 1539 1540 1540 1540 1541 1541 1542 1542 1542 1542 1542 1542 1542 1542 1542 1542 1542 1542 1542 1542 1542 1542 1542 1542 1541 1541 1541 1541 1540 1540 1539 1539 1538 1538 1537 1537 1537 1537 1537 1536 1535 1534 1533 1533 1533 1534 1534 1534 1534 1534 1534 1534 1533 1533 1533 1533 1533 1533 1533 1533 1533 1533 1533 1533 1533 1532 1532 1532 1532 1532 1532 1532 1532 1532 1531 1531 1531 1531 1530 1530 1530 1530 1530 1529 1529 1528 1528 1528 1528 1528 1528 1528 1528 1528 1527 1527 1527
1538 1538 1538 1538 1538 1538 1539 1539 1539 1540 1540 1541 1541 1541 1542 1541 1541 1541 1541 1541 1541 1541 1542 1542 1542 1542 1542 1541 1541 1541 1541 1540 1540 1540 1540 1539 1539 1538 1538 1537 1537 1536 1536 1536 1536 1535 1534 1533 1533 1533 1533 1533 1533 1533 1533 1533 1533 1533 1533 1533 1532 1532 1532 1532 1532 1532 1532 1532 1532 1532 1532 1532 1532 1531 1531 1531 1531 1531 1531 1531 1531 1531 1530 1530 1530 1529 1529 1529 1529 1529 1528 1528 1527 1527 1527 1527 1527 1527 1527 1527 1527 1526 1526
1538 1538 1538 1537 1537 1537 1538 1538 1539 1539 1540 1540 1540 1540 1541 1541 1541 1541 1541 1541 1541 1541 1541 1541 1541 1541 1541 1541 1540 1540 1540 1539 1539 1539 1539 1538 1538 1537 1537 1537 1536 1536 1535 1535 1535 1534 1534 1532 1532 1532 1532 1532 1532 1532 1532 1532 1532 1532 1532 1532 1532 1532 1532 1532 1532 1532 1532 1532 1532 1532 1532 1531 1531 1531 1530 1530 1530 1530 1530 1530 1530 1530 1529 1529 1529 1529 1528 1528 1528 1528 1527 1527 1527 1527 1527 1527 1526 1526 1526 1526 1526 1525 1525
1537 1537 1537 1537 1537 1537 1537 1537 1538 1538 1538 1539 1539 1540 1540 1540 1540 1541 1541 1541 1541 1541 1541 1541 1541 1541 1540 1540 1540 1539 1539 1539 1538 1538 1538 1537 1537 1537 1536 1536 1535 1535 1534 1534 1534 1534 1533 1532 1532 1532 1532 1532 1532 1532 1532 1532 1532 1532 1532 1532 1532 1532 1531 1531 1531 1531 1531 1531 1531 1531 1531 1531 1530 1530 1530 1530 1529 1529 1529 1529 1529 1529 1529 1528 1528 1528 1527 1527 1527 1527 1527 1527 1526 1526 1526 1525 1525 1525 1525 1525 1524 1524 1524
1536 1536 1536 1536 1536 1536 1536 1536 1537 1537 1537 1538 1539 1539 1540 1540 1540 1540 1540 1541 1541 1541 1541 1540 1540 1540 1540 1539 1539 1539 1538 1538 1537 1537 1537 1537 1536 1536 1535 1535 1534 1534 1534 1534 1533 1533 1533 1532 1531 1531 1531 1531 1531 1531 1531 1531 1531 1531 1531 1531 1531 1531 1531 1531 1531 1531 1531 1530 1530 1530 1530 1530 1530 1529 1529 1529 1529 1528 1528 1528 1528 1528 1528 1528 1527 1527 1527 1527 1527 1526 1526 1526 1525 1525 1525 1524 1524 1524 1524 1523 1523 1523 1523
1535 1535 1535 1535 1535 1535 1535 1536 1536 1536 1537 1537 1538 1539 1539 1540 1540 1540 1540 1540 1540 1540 1540 1540 1540 1540 1539 1539 1538 1538 1537 1537 1537 1536 1536 1535 1535 1535 1535 1534 1534 1533 1533 1533 1533 1533 1532 1532 1531 1530 1530 1530 1530 1530 1530 1531 1531 1531 1531 1531 1531 1531 1530 1530 1530 1530 1530 1530 1530 1529 1529 1529 1529 1529 1528 1528 1528 1528 1527 1527 1527 1527 1527 1527 1527 1526 1526 1526 1526 1525 1525 1525 1524 1524 1524 1523 1523 1523 1523 1522 1522 1522 1522
1534 1535 1535 1534 1534 1535 1535 1535 1536 1536 1536 1537 1537 1538 1539 1539 1539 1540 1539 1539 1540 1539 1539 1539 1539 1539 1539 1538 1538 1537 1537 1537 1536 1535 1535 1534 1534 1534 1534 1533 1533 1533 1532 1532 1532 1532 1532 1531 1531 1530 1530 1530 1530 1530 1530 1530 1530 1530 1530 1530 1530 1530 1530 1530 1530 1529 1529 1529 1529 1529 1529 1528 1528 1528 1528 1527 1527 1527 1527 1527 1527 1527 1526 1526 1526 1525 1525 1525 1525 1524 1524 1524 1523 1523 1523 1522 1522 1522 1522 1521 1521 1521 1520
1534 1534 1534 1534 1534 1534 1535 1535 1536 1536 1537 1537 1537 1537 1538 1538 1539 1539 1539 1539 1539 1539 1539 1538 1538 1538 1538 1537 1537 1537 1536 1536 1535 1535 1534 1534 1533 1533 1533 1533 1532 1532 1532 1532 1531 1531 1531 1531 1530 1530 1529 1529 1529 1529 1529 1529 1529 1529 1529 1529 1529 1529 1529 1529 1529 1529 1529 1528 1528 1528 1528 1528 1527 1527 1527 1527 1527 1527 1526 1526 1526 1526 1526 1525 1525 1525 1524 1524 1524 1523 1523 1523 1522 1522 1522 1521 1521 1521 1520 1520 1520 1520 1519
1533 1534 1534 1534 1534 1534 1535 1536 1536 1537 1537 1537 1537 1537 1537 1537 1538 1538 1538 1538 1538 1538 1538 1538 1538 1537 1537 1537 1537 1536 1536 1535 1535 1534 1533 1533 1532 1532 1532 1532 1532 1532 1531 1531 1531 1530 1530 1530 1530 1529 1529 1529 1528 1528 1528 1528 1528 1529 1529 1529 1529 1528 1528 1528 1528 1528 1528 1528 1527 1527 1527 1527 1527 1527 1527 1526 1526 1526 1526 1526 1525 1525 1525 1525 1524 1524 1524 1523 1523 1523 1522 1522 1522 1521 1521 1520 1520 1519 1519 1519 1519 1518 1518
1533 1533 1533 1533 1534 1534 1535 1536 1536 1537 1537 1537 1536 1536 1536 1537 1537 1537 1537 1537 1537 1537 1537 1537 1537 1537 1537 1537 1536 1536 1535 1534 1534 1533 1533 1532 1532 1531 1531 1531 1531 1531 1531 1530 1530 1530 1530 1529 1529 1529 1528 1528 1528 1528 1528 1528 1528 1528 1528 1528 1528 1528 1528 1528 1527 1527 1527 1527 1527 1527 1527 1526 1526 1526 1526 1526 1525 1525 1525 1525 1525 1524 1524 1524 1523 1523 1523 1522 1522 1522 1521 1521 1521 1520 1520 1519 1519 1518 1518 1517 1517 1517 1517
1532 1532 1533 1533 1533 1534 1535 1536 1536 1536 1536 1536 1536 1535 1536 1536 1536 1537 1537 1537 1537 1537 1537 1537 1537 1537 1537 1536 1536 1535 1534 1534 1533 1532 1532 1532 1531 1531 1530 1530 1530 1530 1530 1530 1529 1529 1529 1529 1529 1528 1528 1527 1527 1527 1527 1527 1527 1527 1527 1527 1527 1527 1527 1527 1527 1527 1527 1526 1526 1526 1526 1526 1525 1525 1525 1525 1525 1525 1524 1524 1524 1524 1523 1523 1522 1522 1522 1522 1521 1521 1520 1520 1520 1519 1519 1518 1518 1517 1517 1517 1516 1516 1515
1531 1532 1532 1532 1533 1534 1535 1535 1536 1536 1536 1535 1535 1535 1535 1535 1536 1536 1536 1536 1536 1536 1536 1536 1536 1536 1536 1535 1535 1534 1533 1533 1532 1532 1531 1531 1530 1530 1530 1529 1529 1529 1529 1529 1529 1528 1528 1528 1528 1528 1527 1527 1527 1527 1527 1527 1526 1526 1526 1526 1527 1527 1527 1527 1526 1526 1526 1526 1526 1525 1525 1525 1525 1525 1524 1524 1524 1524 1523 1523 1523 1522 1522 1522 1522 1521 1521 1520 1520 1520 1519 1519 1518 1518 1517 1517 1517 1516 1516 1515 1515 1514 1514
1530 1530 1531 1532 1533 1534 1534 1535 1535 1535 1535 1534 1534 1534 1534 1535 1535 1536 1536 1536 1536 1536 1536 1536 1536 1535 1535 1534 1534 1533 1533 1532 1532 1531 1531 1530 1530 1529 1529 1529 1529 1529 1529 1528 1528 1528 1527 1527 1527 1527 1527 1527 1527 1526 1526 1526 1526 1526 1526 1526 1526 1526 1526 1526 1526 1526 1526 1525 1525 1525 1525 1525 1524 1524 1524 1523 1523 1523 1523 1522 1522 1522 1521 1521 1520 1520 1519 1519 1518 1518 1518 1517 1517 1517 1516 1516 1515 1515 1514 1514 1513 1513 1512
1528 1529 1530 1531 1532 1533 1534 1534 1534 1534 1534 1534 1534 1534 1534 1534 1535 1535 1535 1535 1535 1535 1535 1535 1535 1534 1534 1534 1533 1533 1532 1532 1531 1531 1530 1530 1529 1529 1528 1528 1528 1528 1528 1528 1527 1527 1527 1527 1527 1527 1527 1527 1527 1526 1526 1526 1526 1525 1525 1525 1525 1525 1525 1525 1525 1525 1525 1525 1525 1525 1524 1524 1524 1523 1523 1523 1522 1522 1522 1521 1521 1521 1520 1520 1519 1519 1518 1518 1517 1517 1517 1516 1516 1515 1515 1514 1514 1513 1513 1512 1512 1512 1511
1527 1528 1529 1530 1531 1532 1532 1533 1533 1533 1533 1533 1533 1533 1533 1534 1534 1534 1534 1534 1534 1534 1534 1534 1534 1534 1533 1533 1532 1532 1532 1531 1531 1530 1530 1529 1529 1528 1528 1527 1527 1527 1527 1527 1527 1527 1527 1526 1526 1526 1526 1526 1526 1526 1526 1526 1526 1525 1525 1525 1524 1524 1524 1524 1524 1524 1524 1524 1524 1524 1524 1523 1523 1522 1522 1522 1522 1521 1521 1521 1520 1520 1519 1519 1518 1518 1517 1517 1516 1516 1515 1515 1515 1514 1514 1513 1512 1512 1512 1511 1511 1510 1510
1526 1527 1528 1529 1530 1531 1531 1531 1532 1532 1532 1532 1532 1533 1533 1533 1533 1533 1533 1534 1533 1533 1533 1533 1533 1533 1532 1532 1532 1532 1531 1531 1530 1529 1529 1528 1528 1527 1527 1527 1527 1527 1527 1527 1526 1526 1526 1526 1525 1525 1525 1525 1525 1525 1526 1526 1525 1525 1525 1524 1524 1524 1524 1523 1523 1523 1523 1523 1523 1523 1523 1522 1522 1522 1521 1521 1521 1520 1520 1519 1519 1519 1518 1518 1517 1517 1517 1516 1515 1515 1514 1514 1513 1513 1512 1512 1512 1511 1510 1510 1509 1509 1509
1525 1526 1527 1528 1529 1529 1530 1530 1530 1531 1531 1532 1532 1532 1532 1532 1533 1533 1533 1533 1533 1533 1533 1533 1532 1532 1532 1532 1531 1531 1530 1530 1529 1529 1528 1528 1527 1527 1527 1527 1526 1526 1526 1526 1526 1526 1525 1525 1525 1525 1524 1525 1525 1525 1525 1525 1525 1525 1525 1525 1524 1524 1524 1523 1523 1523 1523 1522 1522 1522 1522 1522 1521 1521 1521 1520 1520 1519 1519 1518 1518 1517 1517 1517 1516 1516 1515 1515 1514 1514 1513 1513 1512 1512 1512 1511 1510 1510 1509 1509 1508 1508 1507
1524 1525 1527 1527 1528 1528 1528 1529 1529 1530 1530 1531 1531 1532 1532 1532 1532 1532 1532 1532 1532 1532 1532 1532 1532 1532 1532 1531 1531 1531 1530 1529 1529 1528 1528 1527 1527 1527 1526 1526 1526 1526 1525 1525 1525 1525 1525 1525 1524 1524 1524 1524 1524 1524 1524 1524 1524 1525 1525 1525 1525 1524 1524 1524 1523 1523 1522 1522 1522 1522 1521 1521 1521 1520 1520 1519 1519 1518 1518 1517 1517 1516 1516 1516 1515 1515 1514 1513 1513 1512 1512 1512 1511 1511 1510 1510 1509 1509 1508 1507 1507 1507 1506
1524 1525 1526 1527 1527 1527 1527 1528 1528 1529 1529 1530 1531 1531 1531 1532 1532 1532 1532 1532 1532 1532 1532 1532 1532 1531 1531 1531 1531 1530 1530 1529 1528 1528 1527 1527 1527 1526 1526 1526 1525 1525 1525 1525 1524 1524 1524 1524 1524 1524 1523 1523 1523 1523 1524 1524 1524 1524 1524 1524 1524 1524 1524 1523 1523 1522 1522 1522 1521 1521 1521 1520 1520 1519 1519 1519 1518 1518 1517 1517 1516 1515 1515 1514 1514 1513 1513 1512 1512 1511 1511 1511 1510 1510 1509 1509 1508 1507 1507 1507 1506 1506 1505
1523 1524 1526 1526 1527 1527 1527 1527 1527 1528 1528 1529 1530 1530 1531 1531 1531 1531 1531 1531 1531 1531 1531 1531 1531 1531 1531 1530 1530 1530 1529 1529 1528 1527 1527 1527 1526 1526 1525 1525 1525 1525 1524 1524 1524 1524 1524 1524 1523 1523 1523 1523 1523 1523 1523 1523 1524 1524 1523 1523 1523 1523 1522 1522 1522 1522 1521 1521 1521 1520 1520 1519 1519 1518 1518 1518 1517 1517 1516 1516 1515 1514 1514 1513 1513 1512 1512 1511 1511 1510 1510 1509 1509 1508 1508 1507 1507 1506 1506 1505 1505 1504 1504
1522 1524 1524 1525 1526 1526 1526 1526 1527 1527 1528 1528 1529 1529 1530 1530 1530 1530 1530 1530 1530 1530 1530 1530 1530 1530 1530 1530 1530 1529 1529 1528 1527 1527 1527 1526 1526 1525 1525 1525 1525 1524 1524 1523 1523 1523 1523 1523 1523 1523 1523 1523 1523 1523 1523 1523 1523 1523 1523 1522 1522 1522 1522 1521 1521 1521 1520 1520 1519 1519 1519 1518 1518 1517 1517 1517 1517 1516 1516 1515 1514 1514 1513 1512 1512 1512 1511 1510 1509 1509 1508 1508 1507 1507 1507 1506 1506 1505 1505 1504 1504 1503 1503
1522 1522 1523 1524 1524 1525 1525 1525 1526 1526 1527 1527 1528 1528 1529 1529 1530 1530 1530 1530 1530 1530 1530 1530 1530 1530 1530 1529 1529 1529 1528 1527 1527 1527 1526 1526 1525 1525 1525 1524 1524 1524 1523 1523 1523 1523 1522 1522 1522 1522 1522 1522 1522 1522 1522 1522 1522 1522 1522 1522 1521 1521 1521 1520 1520 1519 1519 1519 1518 1518 1517 1517 1517 1517 1516 1516 1516 1515 1515 1514 1513 1513 1512 1512 1511 1511 1510 1509 1508 1508 1507 1507 1506 1506 1505 1505 1504 1504 1503 1503 1503 1502 1502
1521 1521 1522 1522 1523 1524 1524 1524 1525 1525 1526 1527 1527 1527 1528 1528 1529 1529 1529 1529 1529 1529 1529 1529 1529 1529 1529 1529 1528 1528 1527 1527 1527 1526 1525 1525 1525 1525 1524 1524 1524 1523 1523 1522 1522 1522 1522 1522 1522 1522 1522 1522 1522 1522 1522 1522 1522 1521 1521 1521 1521 1520 1520 1519 1519 1518 1518 1518 1517 1517 1517 1517 1516 1516 1515 1515 1515 1514 1514 1513 1513 1512 1512 1511 1510 1509 1509 1508 1507 1507 1506 1506 1505 1504 1504 1503 1503 1503 1502 1502 1502 1501 1501
1519 1520 1521 1522 1522 1522 1523 1523 1524 1525 1525 1526 1526 1527 1527 1527 1528 1528 1528 1528 1528 1528 1528 1528 1528 1528 1528 1528 1527 1527 1527 1526 1526 1525 1525 1525 1524 1524 1524 1523 1523 1522 1522 1522 1522 1522 1522 1522 1522 1522 1522 1522 1522 1522 1521 1521 1521 1521 1520 1520 1520 1519 1519 1519 1518 1518 1517 1517 1517 1516 1516 1516 1515 1515 1514 1514 1513 1513 1512 1512 1512 1511 1510 1510 1509 1508 1507 1507 1506 1505 1505 1504 1504 1503 1503 1502 1502 1502 1501 1501 1501 1500 1500
1518 1519 1520 1521 1521 1522 1522 1522 1523 1524 1524 1525 1525 1526 1526 1527 1527 1527 1527 1527 1527 1527 1527 1528 1528 1527 1527 1527 1527 1527 1526 1526 1525 1525 1524 1524 1524 1523 1523 1522 1522 1522 1522 1521 1521 1521 1521 1521 1521 1521 1521 1521 1521 1521 1521 1520 1520 1520 1520 1519 1519 1519 1519 1518 1518 1517 1517 1517 1516 1516 1515 1515 1514 1514 1513 1512 1512 1512 1511 1511 1510 1510 1509 1508 1508 1507 1506 1506 1505 1504 1503 1503 1502 1502 1502 1501 1501 1501 1500 1500 1499 1499 1499
1517 1518 1519 1519 1520 1521 1521 1522 1522 1523 1524 1524 1525 1525 1526 1526 1526 1527 1527 1527 1527 1527 1527 1527 1527 1527 1527 1526 1526 1526 1526 1525 1525 1524 1524 1523 1523 1522 1522 1522 1522 1521 1521 1521 1520 1520 1520 1520 1520 1520 1521 1520 1520 1520 1520 1520 1520 1519 1519 1519 1519 1518 1518 1518 1517 1517 1516 1516 1515 1515 1514 1514 1513 1512 1512 1511 1511 1510 1510 1509 1509 1508 1507 1507 1506 1506 1505 1504 1504 1503 1502 1502 1501 1501 1501 1500 1500 1500 1499 1499 1498 1498 1498
1516 1517 1518 1518 1519 1519 1520 1521 1521 1522 1523 1523 1524 1524 1525 1525 1526 1526 1526 1526 1526 1526 1526 1526 1526 1526 1526 1526 1526 1525 1525 1524 1524 1524 1523 1523 1523 1522 1522 1521 1521 1521 1520 1520 1520 1520 1520 1520 1520 1520 1520 1520 1519 1519 1519 1519 1519 1519 1518 1518 1518 1517 1517 1517 1517 1516 1515 1515 1514 1514 1513 1512 1512 1511 1510 1510 1509 1509 1508 1508 1507 1507 1506 1505 1505 1504 1503 1503 1502 1502 1501 1501 1500 1500 1500 1499 1499 1499 1498 1498 1498 1497 1497
1515 1516 1517 1517 1517 1518 1519 1520 1520 1521 1522 1522 1523 1523 1523 1524 1525 1525 1525 1525 1525 1525 1525 1525 1525 1525 1525 1525 1525 1525 1524 1524 1523 1523 1522 1522 1522 1522 1521 1521 1520 1520 1520 1520 1519 1519 1519 1519 1519 1519 1519 1519 1519 1518 1518 1518 1518 1518 1517 1517 1517 1516 1516 1516 1515 1515 1514 1514 1513 1512 1512 1511 1510 1510 1509 1508 1508 1507 1507 1506 1506 1505 1504 1504 1503 1502 1502 1502 1501 1501 1500 1500 1499 1499 1499 1498 1498 1498 1497 1497 1497 1496 1496
1514 1515 1516 1516 1517 1517 1518 1518 1519 1520 1521 1521 1522 1522 1522 1523 1524 1524 1525 1525 1525 1525 1525 1525 1525 1525 1525 1524 1524 1524 1523 1523 1523 1522 1522 1522 1521 1521 1520 1520 1520 1520 1519 1519 1519 1519 1519 1519 1519 1519 1518 1518 1518 1518 1517 1517 1517 1517 1517 1516 1516 1515 1515 1514 1514 1513 1513 1512 1512 1512 1511 1510 1509 1509 1508 1507 1507 1506 1506 1505 1504 1504 1503 1502 1502 1501 1501 1500 1500 1499 1499 1499 1498 1498 1497 1497 1497 1497 1497 1496 1496 1495 1495
1513 1514 1514 1515 1515 1516 1517 1517 1518 1519 1520 1520 1521 1521 1521 1522 1523 1523 1524 1524 1524 1524 1524 1524 1524 1524 1524 1524 1523 1523 1523 1522 1522 1522 1521 1521 1521 1520 1520 1520 1519 1519 1519 1519 1518 1518 1518 1518 1518 1518 1518 1517 1517 1517 1517 1517 1517 1516 1516 1515 1515 1514 1514 1513 1513 1512 1512 1512 1511 1511 1510 1509 1508 1508 1507 1507 1506 1505 1505 1504 1503 1502 1502 1501 1500 1500 1499 1499 1498 1498 1498 1497 1497 1497 1496 1496 1496 1495 1495 1495 1494 1494 1493
1512 1513 1513 1514 1514 1515 1516 1516 1517 1518 1518 1519 1520 1520 1520 1521 1522 1522 1522 1523 1523 1523 1523 1522 1522 1523 1523 1523 1523 1522 1522 1522 1522 1521 1521 1520 1520 1520 1519 1519 1518 1518 1518 1518 1518 1518 1517 1517 1517 1517 1517 1517 1517 1517 1516 1516 1516 1516 1515 1515 1514 1513 1513 1512 1512 1512 1511 1511 1510 1510 1509 1508 1507 1507 1506 1506 1505 1504 1504 1503 1502 1501 1501 1500 1499 1498 1498 1497 1497 1497 1496 1496 1495 1495 1495 1494 1494 1493 1493 1493 1492 1492 1491
1511 1512 1512 1512 1513 1514 1514 1515 1516 1517 1517 1518 1519 1519 1519 1520 1520 1521 1522 1522 1522 1522 1522 1522 1521 1521 1521 1522 1522 1522 1521 1521 1521 1520 1520 1519 1519 1519 1519 1518 1518 1517 1517 1517 1517 1517 1517 1517 1517 1517 1517 1516 1516 1516 1516 1516 1516 1515 1515 1514 1513 1513 1512 1512 1512 1511 1510 1510 1509 1508 1508 1507 1507 1506 1505 1505 1504 1503 1502 1502 1501 1500 1499 1499 1498 1497 1497 1496 1495 1495 1494 1494 1494 1493 1493 1492 1492 1491 1491 1491 1490 1490 1489
1510 1510 1511 1511 1512 1512 1513 1514 1515 1516 1517 1517 1518 1518 1518 1519 1519 1520 1520 1521 1521 1521 1521 1520 1520 1520 1520 1520 1520 1520 1520 1520 1520 1519 1519 1519 1518 1518 1518 1518 1517 1517 1517 1517 1517 1516 1516 1516 1516 1516 1515 1515 1515 1516 1516 1515 1515 1515 1514 1513 1513 1512 1512 1511 1511 1510 1509 1509 1508 1507 1507 1506 1506 1505 1504 1503 1503 1502 1501 1501 1500 1499 1498 1497 1497 1496 1495 1495 1494 1493 1493 1492 1492 1491 1491 1490 1490 1489 1489 1489 1488 1488 1487
1508 1509 1509 1510 1511 1512 1512 1513 1514 1515 1516 1517 1517 1517 1518 1518 1518 1518 1519 1519 1520 1520 1520 1519 1519 1519 1518 1519 1519 1519 1519 1519 1519 1518 1518 1518 1517 1517 1517 1517 1516 1516 1516 1516 1516 1516 1515 1515 1515 1515 1515 1514 1514 1514 1515 1514 1514 1513 1513 1512 1512 1511 1511 1510 1509 1509 1508 1507 1507 1506 1506 1505 1504 1503 1503 1502 1502 1501 1500 1499 1499 1498 1497 1496 1496 1495 1494 1493 1493 1492 1491 1491 1490 1490 1489 1488 1488 1487 1487 1487 1486 1486 1485
1507 1507 1508 1509 1510 1510 1511 1512 1512 1514 1515 1515 1516 1517 1517 1517 1517 1517 1518 1518 1519 1519 1519 1519 1518 1518 1517 1518 1518 1518 1518 1518 1518 1517 1517 1517 1517 1516 1516 1516 1515 1515 1515 1515 1514 1514 1514 1514 1514 1513 1513 1513 1512 1512 1512 1513 1512 1512 1512 1511 1511 1510 1509 1509 1508 1507 1507 1506 1505 1504 1504 1503 1503 1502 1501 1501 1500 1499 1498 1498 1497 1497 1496 1495 1494 1494 1493 1492 1492 1491 1490 1489 1489 1488 1487 1487 1486 1486 1485 1485 1484 1484 1484
1505 1506 1507 1507 1508 1508 1509 1510 1511 1512 1513 1514 1515 1515 1515 1516 1516 1517 1517 1517 1517 1518 1518 1518 1517 1517 1517 1517 1517 1517 1517 1517 1517 1517 1517 1516 1516 1515 1515 1515 1514 1514 1514 1514 1513 1513 1513 1513 1513 1512 1512 1512 1511 1509 1509 1510 1510 1510 1510 1509 1509 1508 1507 1507 1507 1506 1505 1504 1504 1503 1502 1502 1501 1501 1500 1499 1498 1497 1497 1496 1496 1495 1494 1494 1493 1492 1492 1491 1490 1489 1489 1488 1487 1487 1486 1485 1485 1484 1484 1483 1483 1482 1482
1503 1504 1505 1506 1506 1507 1507 1508 1510 1511 1512 1513 1513 1514 1514 1514 1515 1515 1516 1516 1517 1517 1517 1517 1517 1516 1516 1516 1516 1516 1516 1516 1516 1516 1516 1515 1515 1514 1514 1514 1513 1513 1513 1513 1512 1512 1512 1511 1511 1511 1511 1510 1509 1508 1506 1506 1507 1507 1507 1507 1507 1506 1506 1505 1505 1504 1504 1503 1502 1502 1501 1500 1499 1499 1498 1497 1497 1496 1495 1495 1494 1493 1493 1492 1491 1491 1490 1489 1489 1488 1487 1487 1486 1485 1485 1484 1483 1482 1482 1482 1481 1481 1481